| time (UTC) | temp C | wind direction | speed KPH | gust KPH | rain 1hr cm | rain 24hr cm | rain mn cm | humidity % | barometer mb |
| 20260505183041 | 13 | 36 | 11.3 | 25.7 | 0.00 | 0.00 | 0.00 | 63 | 1013.1 |
| 20260505181605 | 13 | 53 | 6.4 | 22.5 | 0.00 | 0.00 | 0.00 | 59 | 1013.0 |
| 20260505180049 | 13 | 41 | 9.7 | 22.5 | 0.00 | 0.00 | 0.00 | 59 | 1013.1 |
| 20260505174548 | 13 | 286 | 4.8 | 20.9 | 0.00 | 0.00 | 0.00 | 58 | 1013.0 |
| 20260505173047 | 13 | 28 | 4.8 | 20.9 | 0.00 | 0.00 | 0.00 | 59 | 1013.1 |
| 20260505171553 | 13 | 22 | 11.3 | 27.4 | 0.00 | 0.00 | 0.00 | 59 | 1013.2 |
| 20260505170045 | 13 | 32 | 16.1 | 32.2 | 0.00 | 0.00 | 0.00 | 61 | 1013.2 |
| 20260505164533 | 13 | 36 | 12.9 | 25.7 | 0.00 | 0.00 | 0.00 | 60 | 1013.3 |
| 20260505163034 | 13 | 36 | 9.7 | 25.7 | 0.00 | 0.00 | 0.00 | 61 | 1013.3 |
| 20260505161532 | 13 | 24 | 8.0 | 24.1 | 0.00 | 0.00 | 0.00 | 63 | 1013.3 |
| 20260505153045 | 15 | 17 | 14.5 | 32.2 | 0.00 | 0.00 | 0.00 | 56 | 1013.3 |
| 20260505151542 | 15 | 37 | 9.7 | 22.5 | 0.00 | 0.00 | 0.00 | 54 | 1013.3 |
| 20260505124540 | 13 | 32 | 8.0 | 25.7 | 0.00 | 0.00 | 0.00 | 57 | 1013.8 |
| 20260505123048 | 13 | 41 | 8.0 | 22.5 | 0.00 | 0.00 | 0.00 | 58 | 1013.8 |
| 20260505121536 | 13 | 32 | 11.3 | 22.5 | 0.00 | 0.00 | 0.00 | 59 | 1013.8 |
| 20260505120046 | 13 | 30 | 9.7 | 19.3 | 0.00 | 0.00 | 0.00 | 59 | 1013.9 |
| 20260505114559 | 13 | 26 | 9.7 | 22.5 | 0.00 | 0.00 | 0.00 | 63 | 1013.9 |
| 20260505113057 | 13 | 35 | 11.3 | 20.9 | 0.00 | 0.00 | 0.00 | 63 | 1013.8 |
| 20260505111556 | 13 | 34 | 6.4 | 20.9 | 0.00 | 0.00 | 0.00 | 64 | 1014.2 |
| 20260505110106 | 13 | 31 | 3.2 | 19.3 | 0.00 | 0.00 | 0.00 | 66 | 1014.1 |
| 20260505101543 | 12 | 40 | 6.4 | 19.3 | 0.00 | 0.00 | 0.00 | 68 | 1014.4 |
| 20260505100041 | 12 | 35 | 8.0 | 22.5 | 0.00 | 0.00 | 0.00 | 68 | 1014.4 |
| 20260505094539 | 11 | 34 | 6.4 | 19.3 | 0.00 | 0.00 | 0.00 | 69 | 1014.5 |
| 20260505093039 | 11 | 33 | 14.5 | 22.5 | 0.00 | 0.00 | 0.00 | 69 | 1014.5 |
| 20260505091551 | 11 | 34 | 8.0 | 24.1 | 0.00 | 0.00 | 0.00 | 68 | 1014.6 |
| 20260505090037 | 11 | 32 | 8.0 | 17.7 | 0.00 | 0.00 | 0.00 | 72 | 1014.5 |
| 20260505084537 | 11 | 31 | 4.8 | 19.3 | 0.00 | 0.00 | 0.00 | 73 | 1014.6 |
| 20260505083041 | 10 | 48 | 6.4 | 22.5 | 0.00 | 0.00 | 0.00 | 75 | 1014.7 |
| 20260505081533 | 10 | 32 | 8.0 | 16.1 | 0.00 | 0.00 | 0.00 | 78 | 1014.8 |
| 20260505080031 | 10 | 34 | 4.8 | 14.5 | 0.00 | 0.00 | 0.00 | 80 | 1014.9 |
| 20260505074553 | 10 | 35 | 4.8 | 14.5 | 0.00 | 0.00 | 0.00 | 80 | 1014.9 |
| 20260505073058 | 10 | 34 | 8.0 | 14.5 | 0.00 | 0.00 | 0.00 | 80 | 1014.9 |
| 20260505071551 | 10 | 33 | 8.0 | 17.7 | 0.00 | 0.00 | 0.00 | 80 | 1014.9 |
| 20260505070050 | 10 | 36 | 8.0 | 24.1 | 0.00 | 0.00 | 0.00 | 80 | 1015.0 |
| 20260505064629 | 10 | 34 | 9.7 | 20.9 | 0.00 | 0.00 | 0.00 | 80 | 1014.8 |
| 20260505063052 | 9 | 49 | 6.4 | 24.1 | 0.00 | 0.00 | 0.00 | 82 | 1014.9 |
| 20260505061549 | 9 | 35 | 11.3 | 22.5 | 0.00 | 0.00 | 0.00 | 84 | 1014.7 |
| 20260505060046 | 8 | 33 | 8.0 | 16.1 | 0.00 | 0.00 | 0.00 | 85 | 1014.7 |
| 20260505054551 | 8 | 32 | 9.7 | 16.1 | 0.00 | 0.03 | 0.00 | 86 | 1014.7 |
| 20260505053046 | 8 | 32 | 6.4 | 16.1 | 0.00 | 0.03 | 0.00 | 86 | 1014.8 |
| 20260505051543 | 8 | 32 | 6.4 | 17.7 | 0.00 | 0.03 | 0.00 | 87 | 1014.9 |
| 20260505041537 | 9 | 37 | 6.4 | 14.5 | 0.00 | 0.03 | 0.00 | 89 | 1014.6 |
| 20260505040036 | 9 | 36 | 3.2 | 9.7 | 0.00 | 0.03 | 0.00 | 89 | 1014.5 |
| 20260505034554 | 9 | 36 | 6.4 | 9.7 | 0.00 | 0.03 | 0.00 | 89 | 1014.6 |
| 20260505033039 | 9 | 36 | 6.4 | 14.5 | 0.00 | 0.03 | 0.00 | 89 | 1014.5 |
| 20260505031638 | 9 | 36 | 6.4 | 16.1 | 0.00 | 0.03 | 0.00 | 89 | 1014.6 |
| 20260505030044 | 9 | 36 | 6.4 | 16.1 | 0.00 | 0.03 | 0.00 | 88 | 1014.6 |
| 20260505024609 | 9 | 34 | 1.6 | 12.9 | 0.00 | 0.03 | 0.00 | 88 | 1014.8 |
| 20260505023052 | 9 | 34 | 4.8 | 16.1 | 0.00 | 0.03 | 0.00 | 88 | 1014.8 |
| 20260505021550 | 9 | 34 | 3.2 | 14.5 | 0.00 | 0.03 | 0.00 | 87 | 1014.9 |
| 20260505014550 | 10 | 34 | 0.0 | 6.4 | 0.00 | 0.03 | 0.00 | 86 | 1014.9 |
| 20260505013048 | 10 | 34 | 4.8 | 16.1 | 0.00 | 0.03 | 0.00 | 86 | 1015.0 |
| 20260505011547 | 10 | 34 | 0.0 | 6.4 | 0.00 | 0.03 | 0.00 | 85 | 1015.1 |
| 20260505004600 | 11 | 34 | 0.0 | 6.4 | 0.00 | 0.03 | 0.00 | 85 | 1015.2 |
| 20260505003045 | 11 | 34 | 3.2 | 9.7 | 0.00 | 0.03 | 0.00 | 85 | 1015.1 |
| 20260505001543 | 11 | 34 | 4.8 | 9.7 | 0.00 | 0.03 | 0.00 | 85 | 1015.1 |
| 20260505000039 | 11 | 34 | 4.8 | 9.7 | 0.00 | 0.03 | 0.00 | 85 | 1015.1 |
| 20260504234540 | 11 | 34 | 3.2 | 8.0 | 0.00 | 0.03 | 0.00 | 85 | 1015.3 |
| 20260504233039 | 12 | 34 | 4.8 | 12.9 | 0.00 | 0.03 | 0.00 | 85 | 1015.3 |
| 20260504231540 | 12 | 34 | 0.0 | 3.2 | 0.00 | 0.03 | 0.00 | 85 | 1015.3 |
| 20260504230036 | 12 | 34 | 0.0 | 6.4 | 0.00 | 0.03 | 0.00 | 85 | 1015.2 |
| 20260504224539 | 12 | 34 | 0.0 | 12.9 | 0.00 | 0.03 | 0.03 | 85 | 1015.3 |
| 20260504223034 | 12 | 19 | 1.6 | 6.4 | 0.00 | 0.03 | 0.03 | 84 | 1015.3 |
| 20260504221543 | 12 | 18 | 1.6 | 12.9 | 0.00 | 0.03 | 0.03 | 84 | 1015.3 |
| 20260504220032 | 12 | 16 | 3.2 | 4.8 | 0.00 | 0.03 | 0.03 | 83 | 1015.3 |
| 20260504214550 | 13 | 16 | 0.0 | 8.0 | 0.00 | 0.03 | 0.03 | 83 | 1015.2 |
| 20260504213051 | 13 | 16 | 0.0 | 6.4 | 0.00 | 0.03 | 0.03 | 82 | 1015.5 |
| 20260504211549 | 13 | 16 | 0.0 | 6.4 | 0.00 | 0.03 | 0.03 | 82 | 1015.4 |
| 20260504210050 | 13 | 16 | 1.6 | 6.4 | 0.00 | 0.03 | 0.03 | 81 | 1015.4 |
| 20260504204546 | 13 | 16 | 0.0 | 8.0 | 0.00 | 0.13 | 0.03 | 81 | 1015.4 |
| 20260504203146 | 13 | 15 | 3.2 | 11.3 | 0.00 | 0.13 | 0.03 | 80 | 1015.4 |
| 20260504201545 | 14 | 39 | 0.0 | 9.7 | 0.00 | 0.13 | 0.03 | 79 | 1015.3 |
| 20260504200043 | 14 | 42 | 0.0 | 3.2 | 0.00 | 0.13 | 0.03 | 77 | 1015.1 |
| 20260504194549 | 15 | 30 | 0.0 | 3.2 | 0.00 | 0.15 | 0.03 | 75 | 1014.9 |
| 20260504193046 | 15 | 30 | 3.2 | 14.5 | 0.00 | 0.15 | 0.03 | 74 | 1014.7 |
| 20260504191605 | 15 | 28 | 3.2 | 12.9 | 0.00 | 0.15 | 0.03 | 73 | 1014.6 |
| 20260504190041 | 15 | 28 | 1.6 | 9.7 | 0.00 | 0.15 | 0.03 | 74 | 1014.5 |
| 20260504184549 | 15 | 28 | 1.6 | 8.0 | 0.00 | 0.25 | 0.03 | 74 | 1014.4 |